Location: Bartlow
(52.0833°N, 0.3167°E)
Time: 05:26:11
(UTC+00:00)

Meteor 2-17 Rocket - Pass Details

Date: 26 April 2024
Orbit: 934 x 957 km, 82.5° (Epoch: 25 May)

Event Time Altitude Azimuth Distance (km) Brightness Sun altitude
Exits shadow 03:30:55 - 262° (W) 2,879 6.4 -9.7°
Reaches altitude 10° 03:31:51 10° 269° (W) 2,670 6.3 -9.6°
Maximum altitude 03:35:29 16° 306° (NW) 2,259 6.3 -9.1°
Drops below altitude 10° 03:39:07 10° 343° (NNW) 2,669 7.1 -8.7°
Sets 03:42:44 0° 5° (N) 3,614 8.1 -8.2°
